Location: Bühlhof
(48.7849°N, 8.6361°E)
Time: 23:13:23
(UTC+00:00)

Nadezhda 3 Rocket - Pass Details

Date: 19 January 2026
Orbit: 956 x 998 km, 82.9° (Epoch: 9 February)

Event Time Altitude Azimuth Distance (km) Brightness Sun altitude
Rises 17:43:16 0° 187° (S) 3,621 7.2 -16.2°
Reaches altitude 10° 17:45:45 10° 187° (S) 2,680 6.5 -16.6°
Maximum altitude 17:51:53 89° 273° (W) 966 3.9 -17.6°
Drops below altitude 10° 17:58:06 10° 9° (N) 2,711 6.1 -18.6°
Sets 18:00:38 0° 10° (N) 3,666 6.8 -19.0°
